Location: Courçay
(47.2523°N, 0.8761°E)
Time: 06:57:23
(UTC+00:00)

Cosmos 1812 - Pass Details

Date: 18 November 2025
Orbit: 342 x 352 km, 82.5° (Epoch: 06 December)

Event Time Altitude Azimuth Distance (km) Brightness Sun altitude
Rises 17:56:37 0° 196° (SSW) 2,215 6.3 -16.6°
Reaches altitude 10° 17:58:36 10° 201° (SSW) 1,366 5.3 -16.9°
Maximum altitude 18:01:31 55° 281° (W) 449 2.7 -17.4°
Enters shadow 18:03:51 15° 358° (N) 1,125 4.3 -17.8°
